status,avgMeasuredTime,avgSpeed,extID,medianMeasuredTime,TIMESTAMP,vehicleCount,_id,REPORT_ID
OK,619,76,915,619,2014-08-01T08:00:00,5,20746970,201589
OK,619,76,915,619,2014-08-01T08:05:00,3,20747419,201589
OK,596,78,915,596,2014-08-01T08:10:00,4,20747792,201589
OK,603,78,915,603,2014-08-01T08:15:00,4,20748241,201589
OK,599,78,915,599,2014-08-01T08:20:00,2,20748690,201589
OK,596,78,915,596,2014-08-01T08:25:00,1,20749139,201589
OK,742,63,915,742,2014-08-01T08:30:00,2,20749588,201589
OK,679,69,915,679,2014-08-01T08:35:00,4,20750037,201589
OK,600,78,915,600,2014-08-01T08:40:00,3,20750486,201589
OK,600,78,915,600,2014-08-01T08:45:00,3,20750935,201589
OK,600,78,915,600,2014-08-01T08:50:00,4,20751384,201589
OK,614,76,915,614,2014-08-01T08:55:00,4,20751833,201589
OK,645,72,915,645,2014-08-01T09:00:00,7,20752282,201589
OK,637,73,915,637,2014-08-01T09:05:00,8,20752731,201589
OK,613,76,915,613,2014-08-01T09:10:00,4,20753180,201589
OK,593,79,915,593,2014-08-01T09:20:00,3,20754078,201589
OK,596,78,915,596,2014-08-01T09:25:00,2,20754527,201589
OK,592,79,915,592,2014-08-01T09:30:00,1,20754976,201589
OK,670,70,915,670,2014-08-01T09:35:00,3,20755425,201589
OK,655,71,915,655,2014-08-01T09:40:00,3,20755874,201589
OK,654,71,915,654,2014-08-01T09:45:00,4,20756323,201589
OK,755,62,915,755,2014-08-01T09:50:00,2,20756772,201589
OK,603,78,915,603,2014-08-01T09:55:00,3,20757221,201589
OK,612,76,915,612,2014-08-01T10:00:00,7,20757670,201589
OK,707,66,915,707,2014-08-01T10:05:00,4,20758119,201589
OK,627,75,915,627,2014-08-01T10:15:00,13,20759017,201589
OK,604,77,915,604,2014-08-01T10:20:00,6,20759466,201589
OK,596,78,915,596,2014-08-01T10:25:00,4,20759915,201589
OK,640,73,915,640,2014-08-01T10:30:00,9,20760364,201589
OK,633,74,915,633,2014-08-01T10:35:00,12,20760813,201589
OK,621,75,915,621,2014-08-01T10:40:00,10,20761262,201589
OK,612,76,915,612,2014-08-01T10:45:00,5,20761711,201589
OK,545,86,915,545,2014-08-01T10:50:00,0,20762160,201589
OK,615,76,915,615,2014-08-01T10:55:00,9,20762609,201589
OK,615,76,915,615,2014-08-01T11:00:00,9,20763058,201589
OK,626,75,915,626,2014-08-01T11:05:00,5,20763507,201589
OK,615,76,915,615,2014-08-01T11:10:00,3,20763956,201589
OK,628,74,915,628,2014-08-01T11:15:00,5,20764404,201589
OK,615,76,915,615,2014-08-01T11:20:00,8,20764853,201589
OK,616,76,915,616,2014-08-01T11:25:00,6,20765302,201589
OK,619,76,915,619,2014-08-01T11:30:00,5,20765751,201589
OK,629,74,915,629,2014-08-01T11:35:00,9,20766200,201589
OK,659,71,915,659,2014-08-01T11:40:00,8,20766649,201589
OK,613,76,915,613,2014-08-01T11:45:00,3,20767098,201589
OK,624,75,915,624,2014-08-01T11:50:00,5,20767547,201589
OK,636,73,915,636,2014-08-01T11:55:00,6,20767996,201589
OK,660,71,915,660,2014-08-01T12:00:00,8,20768445,201589
OK,771,61,915,771,2014-08-01T12:05:00,9,20768894,201589
OK,675,69,915,675,2014-08-01T12:10:00,15,20769343,201589
OK,650,72,915,650,2014-08-01T12:15:00,9,20769792,201589
OK,633,74,915,633,2014-08-01T12:20:00,4,20770241,201589
OK,652,72,915,652,2014-08-01T12:25:00,7,20770690,201589
OK,632,74,915,632,2014-08-01T12:30:00,9,20771139,201589
OK,623,75,915,623,2014-08-01T12:35:00,10,20771588,201589
OK,626,75,915,626,2014-08-01T12:40:00,5,20772037,201589
OK,620,75,915,620,2014-08-01T12:45:00,6,20772486,201589
OK,609,77,915,609,2014-08-01T12:50:00,7,20772935,201589
OK,635,74,915,635,2014-08-01T12:55:00,7,20773384,201589
OK,637,73,915,637,2014-08-01T13:00:00,5,20773833,201589
OK,615,76,915,615,2014-08-01T13:05:00,10,20774282,201589
OK,615,76,915,615,2014-08-01T13:10:00,14,20774731,201589
OK,615,76,915,615,2014-08-01T13:15:00,11,20775180,201589
OK,614,76,915,614,2014-08-01T13:20:00,12,20775629,201589
OK,608,77,915,608,2014-08-01T13:25:00,6,20776078,201589
OK,634,74,915,634,2014-08-01T13:30:00,2,20776527,201589
OK,627,75,915,627,2014-08-01T13:35:00,6,20776976,201589
OK,614,76,915,614,2014-08-01T13:40:00,5,20777425,201589
OK,634,74,915,634,2014-08-01T13:45:00,5,20777874,201589
OK,633,74,915,633,2014-08-01T13:50:00,10,20778323,201589
OK,601,78,915,601,2014-08-01T14:00:00,4,20779221,201589
OK,606,77,915,606,2014-08-01T14:05:00,3,20779670,201589
OK,600,78,915,600,2014-08-01T14:10:00,3,20780119,201589
OK,669,70,915,669,2014-08-01T14:15:00,7,20780568,201589
OK,670,70,915,670,2014-08-01T14:20:00,6,20781017,201589
OK,622,75,915,622,2014-08-01T14:25:00,1,20781466,201589
OK,608,77,915,608,2014-08-01T14:30:00,5,20781915,201589
OK,608,77,915,608,2014-08-01T14:35:00,5,20782364,201589
OK,603,78,915,603,2014-08-01T14:40:00,5,20782813,201589
OK,603,78,915,603,2014-08-01T14:45:00,3,20783262,201589
OK,592,79,915,592,2014-08-01T14:50:00,4,20783711,201589
OK,598,78,915,598,2014-08-01T14:55:00,7,20784160,201589
OK,622,75,915,622,2014-08-01T15:00:00,5,20784609,201589
OK,615,76,915,615,2014-08-01T15:05:00,6,20785058,201589
OK,592,79,915,592,2014-08-01T15:10:00,8,20785507,201589
OK,597,78,915,597,2014-08-01T15:15:00,8,20785956,201589
OK,607,77,915,607,2014-08-01T15:20:00,7,20786405,201589
OK,612,76,915,612,2014-08-01T15:25:00,5,20786854,201589
OK,601,78,915,601,2014-08-01T15:30:00,2,20787303,201589
OK,579,81,915,579,2014-08-01T15:35:00,1,20787752,201589
OK,611,76,915,611,2014-08-01T15:40:00,1,20788201,201589
OK,609,77,915,609,2014-08-01T15:45:00,3,20788650,201589
OK,603,78,915,603,2014-08-01T15:50:00,6,20789099,201589
OK,603,78,915,603,2014-08-01T15:55:00,4,20789548,201589
OK,704,66,915,704,2014-08-01T16:00:00,4,20789997,201589
OK,620,75,915,620,2014-08-01T16:05:00,6,20790446,201589
OK,601,78,915,601,2014-08-01T16:10:00,3,20790895,201589
OK,576,81,915,576,2014-08-01T16:15:00,2,20791344,201589
OK,592,79,915,592,2014-08-01T16:20:00,3,20791793,201589
OK,596,78,915,596,2014-08-01T16:25:00,3,20792242,201589
OK,591,79,915,591,2014-08-01T16:30:00,4,20792691,201589
OK,563,83,915,563,2014-08-01T16:35:00,2,20793140,201589
OK,580,81,915,580,2014-08-01T16:40:00,1,20793589,201589
OK,574,81,915,574,2014-08-01T16:45:00,2,20794038,201589
OK,605,77,915,605,2014-08-01T16:50:00,1,20794487,201589
OK,605,77,915,605,2014-08-01T16:55:00,0,20794936,201589
OK,853,55,915,853,2014-08-01T17:00:00,1,20795385,201589
OK,636,73,915,636,2014-08-01T17:05:00,6,20795834,201589
OK,627,75,915,627,2014-08-01T17:10:00,8,20796283,201589
OK,603,78,915,603,2014-08-01T17:15:00,4,20796732,201589
OK,598,78,915,598,2014-08-01T17:20:00,5,20797181,201589
OK,610,77,915,610,2014-08-01T17:25:00,4,20797630,201589
OK,605,77,915,605,2014-08-01T17:30:00,2,20798079,201589
OK,544,86,915,544,2014-08-01T17:35:00,2,20798528,201589
OK,555,84,915,555,2014-08-01T17:40:00,3,20798977,201589
OK,541,86,915,541,2014-08-01T17:45:00,2,20799426,201589
OK,521,90,915,521,2014-08-01T17:50:00,3,20799875,201589
OK,521,90,915,521,2014-08-01T17:55:00,1,20800324,201589
OK,582,80,915,582,2014-08-01T18:00:00,2,20800773,201589
OK,582,80,915,582,2014-08-01T18:05:00,2,20801222,201589
OK,683,68,915,683,2014-08-01T18:10:00,2,20801671,201589
OK,683,68,915,683,2014-08-01T18:15:00,2,20802120,201589
OK,695,67,915,695,2014-08-01T18:20:00,0,20802569,201589
OK,576,81,915,576,2014-08-01T18:25:00,1,20803018,201589
OK,554,84,915,554,2014-08-01T18:30:00,2,20803467,201589
OK,533,88,915,533,2014-08-01T18:35:00,1,20803916,201589
OK,533,88,915,533,2014-08-01T18:40:00,0,20804365,201589
OK,614,76,915,614,2014-08-01T18:45:00,1,20804814,201589
OK,614,76,915,614,2014-08-01T18:50:00,0,20805263,201589
OK,712,66,915,712,2014-08-01T18:55:00,3,20805712,201589
OK,712,66,915,712,2014-08-01T19:00:00,3,20806161,201589
OK,712,66,915,712,2014-08-01T19:05:00,0,20806610,201589
OK,555,84,915,555,2014-08-01T19:10:00,1,20807059,201589
OK,593,79,915,593,2014-08-01T19:15:00,4,20807508,201589
OK,593,79,915,593,2014-08-01T19:20:00,4,20807957,201589
OK,544,86,915,544,2014-08-01T19:25:00,1,20808406,201589
OK,544,86,915,544,2014-08-01T19:30:00,0,20808855,201589
OK,611,76,915,611,2014-08-01T19:35:00,2,20809304,201589
OK,603,78,915,603,2014-08-01T19:40:00,3,20809753,201589
OK,603,78,915,603,2014-08-01T19:45:00,1,20810202,201589
OK,542,86,915,542,2014-08-01T19:50:00,1,20810651,201589
OK,542,86,915,542,2014-08-01T19:55:00,1,20811100,201589
OK,542,86,915,542,2014-08-01T22:00:00,0,20816829,201589
OK,542,86,915,542,2014-08-01T22:05:00,0,20817277,201589
OK,550,85,915,550,2014-08-02T00:00:00,0,20823268,201589
OK,550,85,915,550,2014-08-02T00:05:00,0,20823717,201589
OK,550,85,915,550,2014-08-02T00:10:00,0,20824166,201589
OK,550,85,915,550,2014-08-02T00:15:00,0,20824615,201589
OK,550,85,915,550,2014-08-02T00:20:00,0,20825064,201589
OK,550,85,915,550,2014-08-02T00:25:00,0,20825513,201589
OK,521,90,915,521,2014-08-02T00:30:00,1,20825962,201589
OK,521,90,915,521,2014-08-02T00:35:00,1,20826411,201589
OK,521,90,915,521,2014-08-02T00:40:00,0,20826860,201589
OK,521,90,915,521,2014-08-02T00:45:00,0,20827309,201589
OK,521,90,915,521,2014-08-02T00:50:00,0,20827758,201589
OK,521,90,915,521,2014-08-02T00:55:00,0,20828207,201589
OK,521,90,915,521,2014-08-02T01:00:00,0,20828656,201589
OK,521,90,915,521,2014-08-02T01:05:00,0,20829105,201589
OK,521,90,915,521,2014-08-02T01:10:00,0,20829554,201589
OK,521,90,915,521,2014-08-02T01:15:00,0,20830003,201589
OK,521,90,915,521,2014-08-02T01:20:00,0,20830452,201589
OK,557,84,915,557,2014-08-02T01:25:00,1,20830901,201589
OK,557,84,915,557,2014-08-02T01:30:00,0,20831350,201589
OK,557,84,915,557,2014-08-02T01:35:00,0,20831799,201589
OK,557,84,915,557,2014-08-02T01:40:00,0,20832248,201589
OK,557,84,915,557,2014-08-02T01:45:00,0,20832697,201589
OK,557,84,915,557,2014-08-02T01:50:00,0,20833146,201589
OK,557,84,915,557,2014-08-02T01:55:00,0,20833595,201589
OK,557,84,915,557,2014-08-02T02:00:00,0,20834044,201589
OK,557,84,915,557,2014-08-02T02:05:00,0,20834493,201589
OK,557,84,915,557,2014-08-02T02:10:00,0,20834942,201589
OK,557,84,915,557,2014-08-02T02:15:00,0,20835391,201589
OK,557,84,915,557,2014-08-02T02:20:00,0,20835840,201589
OK,489,96,915,489,2014-08-02T02:25:00,0,20836289,201589
OK,489,96,915,489,2014-08-02T02:30:00,0,20836738,201589
OK,479,98,915,479,2014-08-02T02:35:00,1,20837187,201589
OK,479,98,915,479,2014-08-02T02:40:00,1,20837636,201589
OK,479,98,915,479,2014-08-02T02:45:00,0,20838085,201589
OK,479,98,915,479,2014-08-02T02:50:00,0,20838534,201589
OK,479,98,915,479,2014-08-02T02:55:00,0,20838983,201589
OK,479,98,915,479,2014-08-02T03:00:00,0,20839432,201589
OK,479,98,915,479,2014-08-02T03:05:00,0,20839881,201589
OK,479,98,915,479,2014-08-02T03:10:00,0,20840330,201589
OK,479,98,915,479,2014-08-02T03:15:00,0,20840779,201589
OK,479,98,915,479,2014-08-02T03:20:00,0,20841228,201589
OK,479,98,915,479,2014-08-02T03:25:00,0,20841677,201589
OK,479,98,915,479,2014-08-02T03:30:00,0,20842126,201589
OK,479,98,915,479,2014-08-02T03:35:00,0,20842575,201589
OK,479,98,915,479,2014-08-02T03:40:00,0,20843024,201589
OK,479,98,915,479,2014-08-02T03:45:00,0,20843473,201589
OK,479,98,915,479,2014-08-02T03:50:00,0,20843922,201589
OK,479,98,915,479,2014-08-02T03:55:00,0,20844371,201589
OK,655,71,915,655,2014-08-02T06:00:00,1,20851825,201589
OK,612,76,915,612,2014-08-02T06:05:00,2,20852274,201589
OK,562,83,915,562,2014-08-02T06:10:00,3,20852723,201589
OK,545,86,915,545,2014-08-02T06:15:00,2,20853172,201589
OK,562,83,915,562,2014-08-02T06:20:00,0,20853621,201589
OK,594,79,915,594,2014-08-02T06:25:00,4,20854070,201589
OK,605,77,915,605,2014-08-02T06:30:00,5,20854519,201589
OK,636,73,915,636,2014-08-02T06:35:00,2,20854968,201589
OK,616,76,915,616,2014-08-02T06:40:00,5,20855417,201589
OK,611,76,915,611,2014-08-02T06:45:00,7,20855866,201589
OK,575,81,915,575,2014-08-02T06:50:00,7,20856315,201589
OK,586,80,915,586,2014-08-02T06:55:00,6,20856764,201589
OK,616,76,915,616,2014-08-02T07:00:00,2,20857213,201589
OK,581,80,915,581,2014-08-02T07:05:00,3,20857662,201589
OK,581,80,915,581,2014-08-02T07:10:00,3,20858111,201589
OK,581,80,915,581,2014-08-02T07:15:00,0,20858560,201589
OK,571,82,915,571,2014-08-02T07:20:00,2,20859009,201589
OK,601,78,915,601,2014-08-02T07:25:00,3,20859458,201589
OK,615,76,915,615,2014-08-02T07:30:00,2,20859907,201589
OK,629,74,915,629,2014-08-02T07:35:00,3,20860356,201589
OK,677,69,915,677,2014-08-02T07:40:00,2,20860805,201589
OK,619,76,915,619,2014-08-02T07:45:00,3,20861254,201589
OK,612,76,915,612,2014-08-02T07:50:00,4,20861703,201589
OK,611,76,915,611,2014-08-02T07:55:00,3,20862152,201589
OK,597,78,915,597,2014-08-02T08:00:00,3,20862601,201589
OK,611,76,915,611,2014-08-02T08:05:00,4,20863050,201589
OK,635,74,915,635,2014-08-02T08:10:00,2,20863499,201589
OK,666,70,915,666,2014-08-02T08:15:00,3,20863948,201589
OK,666,70,915,666,2014-08-02T08:20:00,3,20864397,201589
OK,632,74,915,632,2014-08-02T08:25:00,3,20864846,201589
OK,614,76,915,614,2014-08-02T08:30:00,5,20865295,201589
OK,614,76,915,614,2014-08-02T08:35:00,5,20865744,201589
OK,627,75,915,627,2014-08-02T08:40:00,5,20866193,201589
OK,619,76,915,619,2014-08-02T08:45:00,4,20866642,201589
OK,636,73,915,636,2014-08-02T08:50:00,5,20867091,201589
OK,701,67,915,701,2014-08-02T08:55:00,5,20867540,201589
OK,701,67,915,701,2014-08-02T09:00:00,5,20867989,201589
OK,628,74,915,628,2014-08-02T09:05:00,7,20868438,201589
OK,624,75,915,624,2014-08-02T09:10:00,5,20868887,201589
OK,810,58,915,810,2014-08-02T09:15:00,1,20869336,201589
OK,672,70,915,672,2014-08-02T09:20:00,3,20869785,201589
OK,659,71,915,659,2014-08-02T09:25:00,2,20870234,201589
OK,666,70,915,666,2014-08-02T09:30:00,10,20870683,201589
OK,666,70,915,666,2014-08-02T09:35:00,10,20871132,201589
OK,623,75,915,623,2014-08-02T09:40:00,1,20871581,201589
OK,639,73,915,639,2014-08-02T09:45:00,3,20872030,201589
OK,660,71,915,660,2014-08-02T09:50:00,6,20872479,201589
OK,665,70,915,665,2014-08-02T09:55:00,5,20872928,201589
OK,586,80,915,586,2014-08-02T10:00:00,1,20873377,201589
OK,663,70,915,663,2014-08-02T10:05:00,4,20873826,201589
OK,622,75,915,622,2014-08-02T10:10:00,5,20874275,201589
OK,604,77,915,604,2014-08-02T10:15:00,3,20874724,201589
OK,604,77,915,604,2014-08-02T10:20:00,3,20875173,201589
OK,563,83,915,563,2014-08-02T10:25:00,2,20875622,201589
OK,591,79,915,591,2014-08-02T10:30:00,2,20876071,201589
OK,638,73,915,638,2014-08-02T10:35:00,3,20876520,201589
OK,620,75,915,620,2014-08-02T10:40:00,7,20876969,201589
OK,616,76,915,616,2014-08-02T10:45:00,5,20877418,201589
OK,690,68,915,690,2014-08-02T10:50:00,2,20877867,201589
OK,632,74,915,632,2014-08-02T10:55:00,2,20878316,201589
OK,589,79,915,589,2014-08-02T11:00:00,4,20878765,201589
OK,592,79,915,592,2014-08-02T11:05:00,5,20879214,201589
OK,595,79,915,595,2014-08-02T11:10:00,3,20879663,201589
OK,593,79,915,593,2014-08-02T11:15:00,3,20880112,201589
OK,631,74,915,631,2014-08-02T11:20:00,5,20880561,201589
OK,647,72,915,647,2014-08-02T11:25:00,3,20881010,201589
OK,638,73,915,638,2014-08-02T11:30:00,1,20881459,201589
OK,644,73,915,644,2014-08-02T11:35:00,2,20881908,201589
OK,644,73,915,644,2014-08-02T11:40:00,8,20882357,201589
OK,703,66,915,703,2014-08-02T11:45:00,7,20882806,201589
OK,624,75,915,624,2014-08-02T11:50:00,7,20883255,201589
OK,603,78,915,603,2014-08-02T11:55:00,5,20883704,201589
OK,648,72,915,648,2014-08-02T12:00:00,1,20884153,201589
OK,648,72,915,648,2014-08-02T12:05:00,1,20884602,201589
OK,648,72,915,648,2014-08-02T12:10:00,0,20885051,201589
OK,728,64,915,728,2014-08-02T12:15:00,2,20885500,201589
OK,645,72,915,645,2014-08-02T12:20:00,4,20885949,201589
OK,598,78,915,598,2014-08-02T12:25:00,5,20886398,201589
OK,597,78,915,597,2014-08-02T12:30:00,3,20886847,201589
OK,694,67,915,694,2014-08-02T12:35:00,1,20887296,201589
OK,663,70,915,663,2014-08-02T12:40:00,6,20887745,201589
OK,651,72,915,651,2014-08-02T12:45:00,8,20888194,201589
OK,630,74,915,630,2014-08-02T12:50:00,3,20888643,201589
OK,605,77,915,605,2014-08-02T12:55:00,2,20889092,201589
OK,607,77,915,607,2014-08-02T13:00:00,5,20889541,201589
OK,607,77,915,607,2014-08-02T13:05:00,7,20889990,201589
OK,617,76,915,617,2014-08-02T13:10:00,4,20890439,201589
OK,614,76,915,614,2014-08-02T13:15:00,1,20890888,201589
OK,681,69,915,681,2014-08-02T13:20:00,1,20891337,201589
OK,624,75,915,624,2014-08-02T13:25:00,6,20891786,201589
OK,624,75,915,624,2014-08-02T13:30:00,6,20892235,201589
OK,664,70,915,664,2014-08-02T13:35:00,2,20892684,201589
OK,620,75,915,620,2014-08-02T13:40:00,1,20893133,201589
OK,634,74,915,634,2014-08-02T13:45:00,3,20893582,201589
OK,630,74,915,630,2014-08-02T13:50:00,4,20894031,201589
OK,581,80,915,581,2014-08-02T13:55:00,3,20894480,201589
OK,591,79,915,591,2014-08-02T14:00:00,5,20894929,201589
OK,581,80,915,581,2014-08-02T14:05:00,7,20895378,201589
OK,611,76,915,611,2014-08-02T14:10:00,9,20895827,201589
OK,636,73,915,636,2014-08-02T14:15:00,4,20896276,201589
OK,659,71,915,659,2014-08-02T14:20:00,1,20896725,201589
OK,636,73,915,636,2014-08-02T14:25:00,2,20897174,201589
OK,598,78,915,598,2014-08-02T14:30:00,6,20897623,201589
OK,576,81,915,576,2014-08-02T14:35:00,5,20898072,201589
OK,588,80,915,588,2014-08-02T14:40:00,4,20898521,201589
OK,599,78,915,599,2014-08-02T14:45:00,3,20898970,201589
OK,577,81,915,577,2014-08-02T14:50:00,4,20899419,201589
OK,580,81,915,580,2014-08-02T14:55:00,2,20899868,201589
OK,637,73,915,637,2014-08-02T15:00:00,4,20900317,201589
OK,642,73,915,642,2014-08-02T15:05:00,5,20900766,201589
OK,642,73,915,642,2014-08-02T15:10:00,1,20901215,201589
OK,594,79,915,594,2014-08-02T15:15:00,1,20901664,201589
OK,595,79,915,595,2014-08-02T15:20:00,4,20902113,201589
OK,599,78,915,599,2014-08-02T15:25:00,3,20902562,201589
OK,595,79,915,595,2014-08-02T15:30:00,4,20903011,201589
OK,595,79,915,595,2014-08-02T15:35:00,2,20903460,201589
OK,618,76,915,618,2014-08-02T15:40:00,2,20903909,201589
OK,609,77,915,609,2014-08-02T15:45:00,4,20904358,201589
OK,605,77,915,605,2014-08-02T15:50:00,3,20904807,201589
OK,612,76,915,612,2014-08-02T15:55:00,1,20905256,201589
OK,566,83,915,566,2014-08-02T16:00:00,3,20905705,201589
OK,565,83,915,565,2014-08-02T16:05:00,2,20906154,201589
OK,564,83,915,564,2014-08-02T16:10:00,0,20906603,201589
OK,635,74,915,635,2014-08-02T16:15:00,4,20907052,201589
OK,609,77,915,609,2014-08-02T16:20:00,3,20907501,201589
OK,572,82,915,572,2014-08-02T16:25:00,4,20907950,201589
OK,553,85,915,553,2014-08-02T16:30:00,2,20908399,201589
OK,553,85,915,553,2014-08-02T16:35:00,1,20908848,201589
OK,553,85,915,553,2014-08-02T16:40:00,1,20909297,201589
OK,562,83,915,562,2014-08-02T16:45:00,1,20909746,201589
OK,587,80,915,587,2014-08-02T16:50:00,5,20910195,201589
OK,587,80,915,587,2014-08-02T16:55:00,4,20910644,201589
OK,605,77,915,605,2014-08-02T17:00:00,1,20911093,201589
OK,602,78,915,602,2014-08-02T17:05:00,2,20911542,201589
OK,598,78,915,598,2014-08-02T17:10:00,2,20911991,201589
OK,570,82,915,570,2014-08-02T17:15:00,2,20912440,201589
OK,564,83,915,564,2014-08-02T17:20:00,1,20912889,201589
OK,564,83,915,564,2014-08-02T17:25:00,0,20913338,201589
OK,560,84,915,560,2014-08-02T17:30:00,1,20913787,201589
OK,560,84,915,560,2014-08-02T17:35:00,1,20914236,201589
OK,560,84,915,560,2014-08-02T17:40:00,0,20914685,201589
OK,593,79,915,593,2014-08-02T17:45:00,3,20915134,201589
OK,593,79,915,593,2014-08-02T17:50:00,3,20915583,201589
OK,594,79,915,594,2014-08-02T17:55:00,0,20916032,201589
OK,594,79,915,594,2014-08-02T18:00:00,0,20916481,201589
OK,639,73,915,639,2014-08-02T18:05:00,1,20916930,201589
OK,639,73,915,639,2014-08-02T18:10:00,1,20917379,201589
OK,639,73,915,639,2014-08-02T18:15:00,0,20917828,201589
OK,639,73,915,639,2014-08-02T18:20:00,0,20918277,201589
OK,628,74,915,628,2014-08-02T18:25:00,3,20918726,201589
OK,607,77,915,607,2014-08-02T18:30:00,2,20919175,201589
OK,586,80,915,586,2014-08-02T18:35:00,0,20919624,201589
OK,586,80,915,586,2014-08-02T18:40:00,0,20920073,201589
OK,586,80,915,586,2014-08-02T18:45:00,0,20920522,201589
OK,547,86,915,547,2014-08-02T18:50:00,1,20920971,201589
OK,951,49,915,951,2014-08-02T18:55:00,2,20921420,201589
OK,547,86,915,547,2014-08-02T19:00:00,0,20921869,201589
OK,521,90,915,521,2014-08-02T19:05:00,1,20922318,201589
OK,521,90,915,521,2014-08-02T19:10:00,3,20922767,201589
OK,522,90,915,522,2014-08-02T19:15:00,2,20923216,201589
OK,579,81,915,579,2014-08-02T19:20:00,2,20923665,201589
OK,567,82,915,567,2014-08-02T19:25:00,2,20924114,201589
OK,536,87,915,536,2014-08-02T19:30:00,1,20924563,201589
OK,592,79,915,592,2014-08-02T19:35:00,2,20925012,201589
OK,573,82,915,573,2014-08-02T19:40:00,4,20925461,201589
OK,567,82,915,567,2014-08-02T19:45:00,3,20925910,201589
OK,567,82,915,567,2014-08-02T19:50:00,1,20926359,201589
OK,567,82,915,567,2014-08-02T19:55:00,0,20926808,201589
OK,523,89,915,523,2014-08-02T20:00:00,1,20927257,201589
OK,543,86,915,543,2014-08-02T20:05:00,2,20927706,201589
OK,563,83,915,563,2014-08-02T20:10:00,1,20928155,201589
OK,595,79,915,595,2014-08-02T20:15:00,1,20928604,201589
OK,593,79,915,593,2014-08-02T20:20:00,2,20929053,201589
OK,591,79,915,591,2014-08-02T20:25:00,1,20929502,201589
OK,591,79,915,591,2014-08-02T20:30:00,0,20929951,201589
OK,591,79,915,591,2014-08-02T20:35:00,0,20930400,201589
OK,610,77,915,610,2014-08-02T20:40:00,1,20930849,201589
OK,610,77,915,610,2014-08-02T20:45:00,1,20931298,201589
OK,546,86,915,546,2014-08-02T20:50:00,1,20931747,201589
OK,546,86,915,546,2014-08-02T20:55:00,1,20932196,201589
OK,546,86,915,546,2014-08-02T21:00:00,0,20932645,201589
OK,546,86,915,546,2014-08-02T21:05:00,0,20933094,201589
OK,546,86,915,546,2014-08-02T21:10:00,0,20933543,201589
OK,546,86,915,546,2014-08-02T21:15:00,0,20933992,201589
OK,619,76,915,619,2014-08-02T21:20:00,1,20934441,201589
OK,637,73,915,637,2014-08-02T21:25:00,3,20934890,201589
OK,567,82,915,567,2014-08-02T21:30:00,1,20935339,201589
OK,567,82,915,567,2014-08-02T21:35:00,0,20935788,201589
OK,648,72,915,648,2014-08-02T21:40:00,4,20936237,201589
OK,597,78,915,597,2014-08-02T21:45:00,2,20936686,201589
OK,611,76,915,611,2014-08-02T21:50:00,1,20937135,201589
OK,611,76,915,611,2014-08-02T21:55:00,0,20937584,201589
OK,611,76,915,611,2014-08-02T22:00:00,0,20938033,201589
OK,611,76,915,611,2014-08-02T22:05:00,0,20938482,201589
OK,611,76,915,611,2014-08-02T22:10:00,0,20938931,201589
OK,579,81,915,579,2014-08-02T22:15:00,3,20939380,201589
OK,587,80,915,587,2014-08-02T22:20:00,1,20939829,201589
OK,530,88,915,530,2014-08-02T22:25:00,1,20940278,201589
OK,530,88,915,530,2014-08-02T22:30:00,0,20940727,201589
OK,663,70,915,663,2014-08-02T22:35:00,0,20941176,201589
OK,663,70,915,663,2014-08-02T22:40:00,0,20941625,201589
OK,663,70,915,663,2014-08-02T22:45:00,0,20942074,201589
OK,663,70,915,663,2014-08-02T22:50:00,0,20942523,201589
OK,592,79,915,592,2014-08-02T22:55:00,2,20942972,201589
OK,588,80,915,588,2014-08-02T23:00:00,1,20943421,201589
OK,588,80,915,588,2014-08-02T23:10:00,0,20943870,201589
OK,588,80,915,588,2014-08-02T23:15:00,0,20944319,201589
OK,588,80,915,588,2014-08-02T23:20:00,0,20944768,201589
OK,866,54,915,866,2014-08-02T23:25:00,1,20945217,201589
OK,673,69,915,673,2014-08-02T23:30:00,2,20945666,201589
OK,481,97,915,481,2014-08-02T23:35:00,1,20946115,201589
OK,490,96,915,490,2014-08-02T23:40:00,1,20946564,201589
OK,387,121,915,387,2014-08-02T23:45:00,2,20947013,201589
OK,387,121,915,387,2014-08-02T23:50:00,0,20947462,201589
OK,387,121,915,387,2014-08-02T23:55:00,0,20947911,201589
OK,576,81,915,576,2014-08-03T00:00:00,2,20948360,201589
OK,576,81,915,576,2014-08-03T00:05:00,2,20948809,201589
OK,517,90,915,517,2014-08-03T00:10:00,0,20949257,201589
OK,517,90,915,517,2014-08-03T00:15:00,0,20949706,201589
OK,517,90,915,517,2014-08-03T00:20:00,0,20950155,201589
OK,517,90,915,517,2014-08-03T00:25:00,0,20950604,201589
OK,420,112,915,420,2014-08-03T00:30:00,2,20951053,201589
OK,420,112,915,420,2014-08-03T00:35:00,0,20951502,201589
OK,420,112,915,420,2014-08-03T00:40:00,0,20951951,201589
OK,420,112,915,420,2014-08-03T00:45:00,0,20952400,201589
OK,420,112,915,420,2014-08-03T00:50:00,0,20952849,201589
OK,420,112,915,420,2014-08-03T00:55:00,0,20953298,201589
OK,420,112,915,420,2014-08-03T01:00:00,0,20953747,201589